Regional Weather Roundup
Issued by NWS Green Bay, WI

Home | Current Version | Previous Version | Text Only | Print | Product List | Glossary On
Versions: 1 2 3 4 5 6 7 8 9 10 11 12 13 14 15 16 17 18 19 20 21 22 23 24 25 26 27 28 29 30 31 32 33 34 35 36 37 38 39 40 41 42 43 44 45 46 47 48 49 50
000
ASUS43 KGRB 250711
RWRGRB

NORTH-CENTRAL AND NORTHEAST WISCONSIN REGIONAL WEATHER ROUNDUP
NATIONAL WEATHER SERVICE GREEN BAY WI
200 AM CDT WED APR 25 2018

WIZ005-009-010>012-018-019-250800-
NORTH CENTRAL WISCONSIN

CITY           SKY/WX    TMP DP  RH WIND       PRES   REMARKS
IRONWOOD       FAIR      26  24  92 CALM      30.24F
MANITOWISH WTR FAIR      31  31 100 N3        30.20R
ARBOR VITAE    FAIR      34  33  96 N5        30.19S
EAGLE RIVER    FAIR      32  32 100 N8        30.18R
LAND O LAKES   FAIR      32  30  93 N6        30.20S
RHINELANDER    FAIR      34  33  96 N5        30.18S
PHILLIPS       FAIR      32  29  90 N7        30.20R
ANTIGO         FAIR      33  33 100 N7        30.16S
TOMAHAWK       FAIR      31  30  97 CALM      30.19S
MERRILL        FOG       31  31 100 CALM      30.18S VSB 1/2
$$

WIZ013-073-250800-
NORTHEAST WISCONSIN

CITY           SKY/WX    TMP DP  RH WIND       PRES   REMARKS
IRON MOUNTAIN  FAIR      34  31  88 NW9       30.15S
MARINETTE      FAIR      39  37  92 N5        30.16S
OCONTO         FAIR      39  37  93 N5        30.14R
$$

WIZ017-030-035>037-045-250800-
CENTRAL WISCONSIN

CITY           SKY/WX    TMP DP  RH WIND       PRES   REMARKS
MEDFORD        FAIR      33  32  94 N6        30.17S
WAUSAU         FAIR      37  35  92 N5        30.15R
MOSINEE        FAIR      37  36  93 N7        30.17R
MARSHFIELD     FAIR      38  35  89 N7        30.15S
WISC RAPIDS    MOCLDY    44  36  73 N8        30.16R
STEVENS POINT  CLOUDY    38  37  94 N6        30.16R
WAUPACA        MOCLDY    44  36  72 N5        30.16R
SHAWANO        MOCLDY    41  37  85 N5        30.15S
CLINTONVILLE   CLOUDY    42  36  78 N7        30.15R
WAUTOMA        FAIR      43  33  68 NW3       30.14F
$$

WIZ038-039-048-051-250800-
FOX VALLEY

CITY           SKY/WX    TMP DP  RH WIND       PRES   REMARKS
NWS GREEN BAY  CLOUDY    43  37  79 N10       30.14S
APPLETON       MOCLDY    43  32  65 N12       30.12S
OSHKOSH        MOCLDY    44  32  62 NE10      30.12S
FOND DU LAC    MOCLDY    44  31  60 NE12      30.12F
$$

WIZ022-050-052-250800-
EAST CENTRAL WISCONSIN

CITY           SKY/WX    TMP DP  RH WIND       PRES   REMARKS
EPHRAIM        FAIR      36  31  83 N9        30.13S
WASHINGTON ISL FAIR      37  29  75 N10G16    30.13F
STURGEON BAY   CLOUDY    40  35  83 N15       30.14S
MANITOWOC      CLOUDY    43  35  73 N9        30.12F
SHEBOYGAN      CLOUDY    42  35  76 NE10      30.11R
$$

LMZ563-521-522-541>543-250800-
LAKESHORE

STATION/POSITION TIME  TEMP    WIND        PRES    VSBY  WAVE
                       AIR SEA DIR/SP/G                  HT/PER
                 (UTC) (F)     (DEG/KT/KT) (MB)    (MI)  (FT/S)
SHEBOYGAN LKSHOR 0700   40      10/ 19/ 21 1020.2F
KEWAUNEE LKSHORE 0642   42     360/  6/  9 1019.3F
NORTHPORT PIER   0640   36                 1020.7S
SISTER BAY LKSHO 0627   39      10/ 10/ 13   N/A
MENOMINEE LKSHOR 0636   38     330/  8/  9 1020.5F
$$




USA.gov is the U.S. government's official web portal to all federal, state and local government web resources and services.